Time,TemperatureF,DewpointF,PressureIn,WindDirection,WindDirectionDegrees,WindSpeedMPH,WindSpeedGustMPH,Humidity,HourlyPrecipIn,Conditions,Clouds,dailyrainin,SolarRadiationWatts/m^2,SoftwareType,DateUTC
2013-03-07 00:00:00,35.3,33.0,29.89,North,5,6.0,-999.0,91,-99.99,,,0.20,0,weatherlink.com 1.10,2013-03-07 05:00:00,
2013-03-07 00:15:00,35.0,33.0,29.89,NE,55,5.0,-999.0,92,-99.99,,,0.21,0,weatherlink.com 1.10,2013-03-07 05:15:00,
2013-03-07 00:30:00,34.5,33.0,29.89,NE,44,3.0,-999.0,93,-99.99,,,0.22,0,weatherlink.com 1.10,2013-03-07 05:30:00,
2013-03-07 00:45:00,34.1,33.0,29.90,North,5,3.0,-999.0,94,-99.99,,,0.22,0,weatherlink.com 1.10,2013-03-07 05:45:00,
2013-03-07 01:00:00,33.7,33.0,29.91,NNW,347,3.0,-999.0,95,-99.99,,,0.22,0,weatherlink.com 1.10,2013-03-07 06:00:00,
2013-03-07 01:15:00,33.6,32.0,29.91,NNE,32,1.0,-999.0,95,-99.99,,,0.22,0,weatherlink.com 1.10,2013-03-07 06:15:00,
2013-03-07 01:30:00,33.8,33.0,29.91,NW,325,3.0,-999.0,96,-99.99,,,0.23,0,weatherlink.com 1.10,2013-03-07 06:30:00,
2013-03-07 01:45:00,34.1,33.0,29.91,NE,37,3.0,-999.0,95,-99.99,,,0.23,0,weatherlink.com 1.10,2013-03-07 06:45:00,
2013-03-07 02:00:00,34.6,33.0,29.90,NNE,19,4.0,-999.0,94,-99.99,,,0.00,0,weatherlink.com 1.10,2013-03-07 07:00:00,
2013-03-07 02:15:00,34.7,33.0,29.90,NNE,24,3.0,-999.0,93,-99.99,,,0.00,0,weatherlink.com 1.10,2013-03-07 07:15:00,
2013-03-07 02:30:00,35.1,33.0,29.90,NNE,19,4.0,-999.0,91,-99.99,,,0.00,0,weatherlink.com 1.10,2013-03-07 07:30:00,
2013-03-07 02:45:00,35.2,33.0,29.90,NNE,24,2.0,-999.0,90,-99.99,,,0.00,0,weatherlink.com 1.10,2013-03-07 07:45:00,
2013-03-07 03:00:00,35.1,33.0,29.90,NNW,327,4.0,-999.0,90,-99.99,,,0.00,0,weatherlink.com 1.10,2013-03-07 08:00:00,
2013-03-07 03:15:00,35.2,32.0,29.91,NNW,338,5.0,-999.0,89,-99.99,,,0.00,0,weatherlink.com 1.10,2013-03-07 08:15:00,
2013-03-07 03:30:00,35.8,32.0,29.91,NNE,18,3.0,-999.0,86,-99.99,,,0.00,0,weatherlink.com 1.10,2013-03-07 08:30:00,
2013-03-07 03:45:00,36.1,32.0,29.92,NNE,28,5.0,-999.0,84,-99.99,,,0.00,0,weatherlink.com 1.10,2013-03-07 08:45:00,
2013-03-07 04:01:00,36.3,31.0,29.93,NNE,31,4.0,-999.0,82,-99.99,,,0.00,0,weatherlink.com 1.10,2013-03-07 09:01:00,
2013-03-07 04:15:00,36.2,32.0,29.93,NE,46,4.0,-999.0,83,-99.99,,,0.00,0,weatherlink.com 1.10,2013-03-07 09:15:00,
2013-03-07 04:31:00,35.8,31.0,29.94,North,351,3.0,-999.0,84,-99.99,,,0.00,0,weatherlink.com 1.10,2013-03-07 09:31:00,
2013-03-07 04:46:00,36.0,31.0,29.95,NNE,26,4.0,-999.0,83,-99.99,,,0.00,0,weatherlink.com 1.10,2013-03-07 09:46:00,
2013-03-07 05:01:00,35.5,31.0,29.95,North,355,7.0,-999.0,85,-99.99,,,0.00,0,weatherlink.com 1.10,2013-03-07 10:01:00,
2013-03-07 05:16:00,35.5,31.0,29.95,NNW,344,10.0,-999.0,84,-99.99,,,0.00,0,weatherlink.com 1.10,2013-03-07 10:16:00,
2013-03-07 05:31:00,35.5,31.0,29.96,North,11,1.0,-999.0,84,-99.99,,,0.00,0,weatherlink.com 1.10,2013-03-07 10:31:00,
2013-03-07 05:46:00,35.2,31.0,29.95,NE,44,6.0,-999.0,84,-99.99,,,0.00,0,weatherlink.com 1.10,2013-03-07 10:46:00,
2013-03-07 06:01:00,35.3,31.0,29.96,North,355,3.0,-999.0,83,-99.99,,,0.00,0,weatherlink.com 1.10,2013-03-07 11:01:00,
2013-03-07 06:16:00,35.4,30.0,29.95,North,5,5.0,-999.0,82,-99.99,,,0.00,0,weatherlink.com 1.10,2013-03-07 11:16:00,
2013-03-07 06:31:00,35.5,30.0,29.96,North,360,1.0,-999.0,81,-99.99,,,0.00,0,weatherlink.com 1.10,2013-03-07 11:31:00,
2013-03-07 06:46:00,35.7,30.0,29.96,NNE,13,4.0,-999.0,81,-99.99,,,0.00,12,weatherlink.com 1.10,2013-03-07 11:46:00,
2013-03-07 07:01:00,35.6,30.0,29.97,NE,42,2.0,-999.0,81,-99.99,,,0.00,33,weatherlink.com 1.10,2013-03-07 12:01:00,
2013-03-07 07:16:00,35.3,31.0,29.97,ENE,69,3.0,-999.0,84,-99.99,,,0.00,67,weatherlink.com 1.10,2013-03-07 12:16:00,
2013-03-07 07:31:00,35.2,31.0,29.98,North,5,6.0,-999.0,85,-99.99,,,0.00,100,weatherlink.com 1.10,2013-03-07 12:31:00,
2013-03-07 07:46:00,35.3,32.0,29.99,North,360,2.0,-999.0,86,-99.99,,,0.00,113,weatherlink.com 1.10,2013-03-07 12:46:00,
2013-03-07 08:01:00,35.4,32.0,29.99,NNW,342,2.0,-999.0,86,-99.99,,,0.01,113,weatherlink.com 1.10,2013-03-07 13:01:00,
2013-03-07 08:16:00,35.4,32.0,30.00,North,5,4.0,-999.0,86,-99.99,,,0.01,125,weatherlink.com 1.10,2013-03-07 13:16:00,
2013-03-07 08:31:00,35.4,32.0,30.00,NNW,342,4.0,-999.0,86,-99.99,,,0.01,121,weatherlink.com 1.10,2013-03-07 13:31:00,
2013-03-07 08:46:00,35.5,32.0,30.01,NE,36,7.0,-999.0,86,-99.99,,,0.01,162,weatherlink.com 1.10,2013-03-07 13:46:00,
2013-03-07 09:01:00,35.7,32.0,30.01,North,360,3.0,-999.0,85,-99.99,,,0.01,142,weatherlink.com 1.10,2013-03-07 14:01:00,
2013-03-07 09:16:00,35.2,32.0,30.01,NE,36,3.0,-999.0,87,-99.99,,,0.01,202,weatherlink.com 1.10,2013-03-07 14:16:00,
2013-03-07 09:31:00,36.3,33.0,30.01,NNE,19,4.0,-999.0,87,-99.99,,,0.01,338,weatherlink.com 1.10,2013-03-07 14:31:00,
2013-03-07 09:46:00,36.8,32.0,30.01,NNE,16,4.0,-999.0,83,-99.99,,,0.01,420,weatherlink.com 1.10,2013-03-07 14:46:00,
2013-03-07 10:01:00,36.9,32.0,30.01,NE,51,11.0,-999.0,82,-99.99,,,0.01,279,weatherlink.com 1.10,2013-03-07 15:01:00,
2013-03-07 10:16:00,36.6,32.0,30.02,North,5,4.0,-999.0,84,-99.99,,,0.01,220,weatherlink.com 1.10,2013-03-07 15:16:00,
2013-03-07 10:31:00,37.0,33.0,30.02,North,5,3.0,-999.0,84,-99.99,,,0.01,399,weatherlink.com 1.10,2013-03-07 15:31:00,
2013-03-07 10:47:00,37.4,32.0,30.02,North,355,6.0,-999.0,81,-99.99,,,0.01,251,weatherlink.com 1.10,2013-03-07 15:47:00,
2013-03-07 11:02:00,37.8,32.0,30.02,North,355,4.0,-999.0,80,-99.99,,,0.01,301,weatherlink.com 1.10,2013-03-07 16:02:00,
2013-03-07 11:17:00,38.4,32.0,30.02,North,5,5.0,-999.0,78,-99.99,,,0.01,299,weatherlink.com 1.10,2013-03-07 16:17:00,
2013-03-07 11:32:00,39.2,33.0,30.02,NNW,329,4.0,-999.0,78,-99.99,,,0.01,376,weatherlink.com 1.10,2013-03-07 16:32:00,
2013-03-07 11:47:00,39.8,33.0,30.02,NNW,344,3.0,-999.0,77,-99.99,,,0.01,320,weatherlink.com 1.10,2013-03-07 16:47:00,
2013-03-07 12:02:00,39.3,33.0,30.02,North,360,5.0,-999.0,79,-99.99,,,0.01,253,weatherlink.com 1.10,2013-03-07 17:02:00,
2013-03-07 12:32:00,38.5,33.0,30.02,North,5,4.0,-999.0,82,-99.99,,,0.01,315,weatherlink.com 1.10,2013-03-07 17:32:00,
2013-03-07 12:47:00,39.0,34.0,30.02,WNW,294,4.0,-999.0,83,-99.99,,,0.01,276,weatherlink.com 1.10,2013-03-07 17:47:00,
2013-03-07 13:02:00,39.5,35.0,30.02,NNW,342,2.0,-999.0,83,-99.99,,,0.01,241,weatherlink.com 1.10,2013-03-07 18:02:00,
2013-03-07 13:17:00,39.2,34.0,30.02,NNW,348,5.0,-999.0,82,-99.99,,,0.01,248,weatherlink.com 1.10,2013-03-07 18:17:00,
2013-03-07 13:32:00,39.3,34.0,30.02,NNE,26,5.0,-999.0,81,-99.99,,,0.01,232,weatherlink.com 1.10,2013-03-07 18:32:00,
2013-03-07 13:47:00,40.4,34.0,30.02,NW,313,1.0,-999.0,79,-99.99,,,0.01,287,weatherlink.com 1.10,2013-03-07 18:47:00,
2013-03-07 14:02:00,40.1,34.0,30.02,NNE,28,2.0,-999.0,78,-99.99,,,0.01,209,weatherlink.com 1.10,2013-03-07 19:02:00,
2013-03-07 14:17:00,40.0,34.0,30.02,NNE,15,4.0,-999.0,79,-99.99,,,0.01,197,weatherlink.com 1.10,2013-03-07 19:17:00,
2013-03-07 14:32:00,40.0,34.0,30.02,NW,312,1.0,-999.0,80,-99.99,,,0.01,179,weatherlink.com 1.10,2013-03-07 19:32:00,
2013-03-07 14:47:00,39.9,35.0,30.03,WNW,296,3.0,-999.0,83,-99.99,,,0.01,288,weatherlink.com 1.10,2013-03-07 19:47:00,
2013-03-07 15:02:00,39.6,35.0,30.04,NW,306,5.0,-999.0,84,-99.99,,,0.01,98,weatherlink.com 1.10,2013-03-07 20:02:00,
2013-03-07 15:17:00,39.3,36.0,30.04,NW,321,9.0,-999.0,86,-99.99,,,0.01,169,weatherlink.com 1.10,2013-03-07 20:17:00,
2013-03-07 15:32:00,39.0,36.0,30.04,NE,39,5.0,-999.0,87,-99.99,,,0.01,113,weatherlink.com 1.10,2013-03-07 20:32:00,
2013-03-07 15:47:00,38.7,36.0,30.05,North,355,2.0,-999.0,88,-99.99,,,0.01,100,weatherlink.com 1.10,2013-03-07 20:47:00,
2013-03-07 16:02:00,38.6,35.0,30.05,North,5,4.0,-999.0,88,-99.99,,,0.01,95,weatherlink.com 1.10,2013-03-07 21:02:00,
2013-03-07 16:17:00,38.7,36.0,30.05,North,5,3.0,-999.0,89,-99.99,,,0.01,69,weatherlink.com 1.10,2013-03-07 21:17:00,
2013-03-07 16:32:00,38.4,36.0,30.05,NNW,332,3.0,-999.0,90,-99.99,,,0.01,37,weatherlink.com 1.10,2013-03-07 21:32:00,
2013-03-07 16:47:00,37.9,36.0,30.05,NW,310,2.0,-999.0,91,-99.99,,,0.02,14,weatherlink.com 1.10,2013-03-07 21:47:00,
2013-03-07 17:02:00,37.4,35.0,30.06,NNW,338,2.0,-999.0,92,-99.99,,,0.02,32,weatherlink.com 1.10,2013-03-07 22:02:00,
2013-03-07 17:17:00,37.2,35.0,30.06,North,355,2.0,-999.0,93,-99.99,,,0.03,16,weatherlink.com 1.10,2013-03-07 22:17:00,
2013-03-07 17:32:00,37.1,35.0,30.06,North,350,3.0,-999.0,93,-99.99,,,0.03,11,weatherlink.com 1.10,2013-03-07 22:32:00,
2013-03-07 17:47:00,36.9,35.0,30.07,NW,316,4.0,-999.0,93,-99.99,,,0.03,0,weatherlink.com 1.10,2013-03-07 22:47:00,
2013-03-07 18:02:00,36.6,35.0,30.07,North,355,1.0,-999.0,94,-99.99,,,0.03,0,weatherlink.com 1.10,2013-03-07 23:02:00,
2013-03-07 18:17:00,36.4,35.0,30.07,WSW,244,8.0,-999.0,93,-99.99,,,0.03,0,weatherlink.com 1.10,2013-03-07 23:17:00,
2013-03-07 18:32:00,36.3,34.0,30.08,NNW,344,3.0,-999.0,92,-99.99,,,0.03,0,weatherlink.com 1.10,2013-03-07 23:32:00,
2013-03-07 18:47:00,36.1,34.0,30.08,North,355,3.0,-999.0,92,-99.99,,,0.03,0,weatherlink.com 1.10,2013-03-07 23:47:00,
2013-03-07 19:02:00,35.9,34.0,30.08,NNW,344,4.0,-999.0,93,-99.99,,,0.04,0,weatherlink.com 1.10,2013-03-08 00:02:00,
2013-03-07 19:17:00,35.7,34.0,30.08,NNW,342,2.0,-999.0,94,-99.99,,,0.04,0,weatherlink.com 1.10,2013-03-08 00:17:00,
2013-03-07 19:47:00,35.3,34.0,30.08,NW,317,1.0,-999.0,93,-99.99,,,0.04,0,weatherlink.com 1.10,2013-03-08 00:47:00,
2013-03-07 20:02:00,35.0,33.0,30.08,NW,320,2.0,-999.0,93,-99.99,,,0.04,0,weatherlink.com 1.10,2013-03-08 01:02:00,
2013-03-07 20:17:00,34.6,33.0,30.08,NNW,348,1.0,-999.0,94,-99.99,,,0.04,0,weatherlink.com 1.10,2013-03-08 01:17:00,
2013-03-07 20:32:00,34.4,33.0,30.08,NW,313,1.0,-999.0,95,-99.99,,,0.04,0,weatherlink.com 1.10,2013-03-08 01:32:00,
2013-03-07 20:47:00,34.5,33.0,30.08,WNW,302,3.0,-999.0,95,-99.99,,,0.04,0,weatherlink.com 1.10,2013-03-08 01:47:00,
2013-03-07 21:02:00,34.4,33.0,30.08,NW,310,1.0,-999.0,95,-99.99,,,0.04,0,weatherlink.com 1.10,2013-03-08 02:02:00,
2013-03-07 21:17:00,34.1,33.0,30.08,WNW,299,3.0,-999.0,95,-99.99,,,0.05,0,weatherlink.com 1.10,2013-03-08 02:17:00,
2013-03-07 21:32:00,33.9,33.0,30.07,North,355,1.0,-999.0,96,-99.99,,,0.05,0,weatherlink.com 1.10,2013-03-08 02:32:00,
2013-03-07 21:47:00,33.8,33.0,30.07,WNW,294,0.0,-999.0,96,-99.99,,,0.05,0,weatherlink.com 1.10,2013-03-08 02:47:00,
2013-03-07 22:02:00,33.9,33.0,30.07,NNW,327,2.0,-999.0,96,-99.99,,,0.05,0,weatherlink.com 1.10,2013-03-08 03:02:00,
2013-03-07 22:17:00,33.8,33.0,30.07,North,355,2.0,-999.0,96,-99.99,,,0.05,0,weatherlink.com 1.10,2013-03-08 03:17:00,
2013-03-07 22:47:00,33.8,33.0,30.07,NNW,331,0.0,-999.0,97,-99.99,,,0.06,0,weatherlink.com 1.10,2013-03-08 03:47:00,
2013-03-07 23:02:00,33.8,33.0,30.07,WNW,288,2.0,-999.0,97,-99.99,,,0.06,0,weatherlink.com 1.10,2013-03-08 04:02:00,
2013-03-07 23:17:00,33.8,33.0,30.07,NW,306,0.0,-999.0,97,-99.99,,,0.06,0,weatherlink.com 1.10,2013-03-08 04:17:00,
2013-03-07 23:32:00,33.8,33.0,30.07,West,275,4.0,-999.0,97,-99.99,,,0.06,0,weatherlink.com 1.10,2013-03-08 04:32:00,
2013-03-07 23:47:00,33.7,33.0,30.07,WSW,243,2.0,-999.0,97,-99.99,,,0.06,0,weatherlink.com 1.10,2013-03-08 04:47:00,